This is the latest recevied weather packets stored in our database for station/object W0VI. If no packets are shown the sender has not sent any weather packets the latest 10 day(s).
| Time | Temp. | Humidity | Pressure | Rain* | Wind** | Luminosity | Snow |
|---|---|---|---|---|---|---|---|
| 1787767156 | 24.44° C | 63% | 1015.5 hPa | 0 mm | - | 399 W/m² | - |
| 1787766856 | 23.89° C | 63% | 1015.4 hPa | 0 mm | - | 673 W/m² | - |
| 1787766556 | 23.33° C | 65% | 1015.5 hPa | 0 mm | - | 277 W/m² | - |
| 1787766255 | 23.33° C | 65% | 1015.4 hPa | 0 mm | - | 184 W/m² | - |
| 1787765950 | 23.89° C | 64% | 1015.5 hPa | 0 mm | - | 192 W/m² | - |
| 1787765647 | 23.89° C | 65% | 1015.5 hPa | 0 mm | - | 478 W/m² | - |
| 1787765342 | 23.89° C | 66% | 1015.5 hPa | 0 mm | - | 193 W/m² | - |
| 1787765041 | 23.33° C | 67% | 1015.5 hPa | 0 mm | - | 169 W/m² | - |
| 1787764736 | 23.33° C | 68% | 1015.5 hPa | 0 mm | - | 219 W/m² | - |
| 1787764431 | 23.33° C | 67% | 1015.6 hPa | 0 mm | - | 127 W/m² | - |
| 1787764128 | 23.33° C | 66% | 1015.4 hPa | 0 mm | - | 323 W/m² | - |
| 1787763823 | 23.89° C | 66% | 1015.5 hPa | 0 mm | - | 191 W/m² | - |
| 1787763512 | 23.33° C | 68% | 1015.5 hPa | 0 mm | - | 780 W/m² | - |
| 1787763212 | 23.33° C | 67% | 1015.4 hPa | 0 mm | - | 218 W/m² | - |
| 1787762902 | 23.89° C | 68% | 1015.4 hPa | 0 mm | - | 237 W/m² | - |
| 1787762596 | 23.33° C | 70% | 1015.5 hPa | 0 mm | - | 396 W/m² | - |
| 1787762293 | 23.33° C | 70% | 1015.5 hPa | 0 mm | - | 687 W/m² | - |
| 1787761988 | 23.33° C | 70% | 1015.1 hPa | 0 mm | - | 696 W/m² | - |
| 1787761682 | 22.22° C | 72% | 1015.5 hPa | 0 mm | - | 630 W/m² | - |
| 1787761378 | 22.22° C | 73% | 1015.7 hPa | 0 mm | - | 171 W/m² | - |
| 1787761076 | 22.22° C | 73% | 1015.5 hPa | 0 mm | - | 213 W/m² | - |
| 1787760776 | 22.22° C | 74% | 1015.5 hPa | 0 mm | - | 330 W/m² | - |
| 1787760470 | 22.22° C | 73% | 1015.5 hPa | 0 mm | - | 271 W/m² | - |
| 1787760169 | 22.22° C | 75% | 1015.3 hPa | 0 mm | - | 220 W/m² | - |
| 1787759866 | 22.78° C | 73% | 1015.2 hPa | 0 mm | - | 88 W/m² | - |
* Rain latest hour (hover to see other rain measurements)
** Current wind speed in m/s (hover to see current wind gust speed)